Preview of NWS' New Version of Forecast
This preview is not operational and should not be used for support decisions.

Regional Weather Roundup (RWR)

Issued by National Weather Service (NWS)

                            
000
ASUS43 KMKX 180421
RWRWI 

WISCONSIN REGIONAL WEATHER ROUNDUP
NATIONAL WEATHER SERVICE MILWAUKEE/SULLIVAN WI
1100 PM CDT SAT AUG 17 2019

NOTE: "FAIR" INDICATES FEW OR NO CLOUDS BELOW 12,000 FEET WITH NO
SIGNIFICANT WEATHER AND/OR OBSTRUCTIONS TO VISIBILITY.

WIZ001-002-006>008-014>016-023>028-180500-
NORTHWEST WISCONSIN
  
CITY           SKY/WX    TMP DP  RH WIND       PRES   REMARKS
SUPERIOR ARPT  FAIR      63  59  88 CALM      29.74S                  
ASHLAND        FAIR      65  59  81 SE5       29.78F                  
HAYWARD        FAIR      63  59  87 CALM      29.79F                  
SIREN          FAIR      67  59  76 SE5       29.76F                  
CUMBERLAND     FAIR      63  57  82 S5        29.79F                  
RICE LAKE      FAIR      65  49  55 SE7       29.80S                  
CHETEK         FAIR      65  61  89 SE5       29.79F                  
LADYSMITH      FAIR      66  61  85 SE6       29.83S                  
EAU CLAIRE     FAIR      69  61  75 S5        29.79S                  
MENOMONIE      FAIR      62  59  90 SE6       29.78F                  
NEW RICHMOND   FAIR      66  59  78 SE6       29.77F                  
OSCEOLA        FAIR      69  62  78 SE7       29.78F                  
$$
 
WIZ003>005-009-010-017-018-180500-
NORTH CENTRAL WISCONSIN
  
CITY           SKY/WX    TMP DP  RH WIND       PRES   REMARKS
MANITOWISH WTR FAIR      59  59 100 SE3       29.84F                  
ARBOR VITAE    FAIR      64  61  87 CALM      29.85F                  
WOODRUFF       FAIR      64  61  87 CALM      29.85F                  
RHINELANDER    FAIR      65  59  81 CALM      29.87F                  
EAGLE RIVER    FAIR      63  61  92 S3        29.86F                  
LAND O LAKES   FAIR      60  58  94 CALM      29.88F                  
PHILLIPS       FAIR      65  61  87 S6        29.82F                  
TOMAHAWK       FAIR      59  58  96 CALM      29.86S                  
MEDFORD        FAIR      62  59  89 SE3       29.85S                  
MERRILL        FAIR      60  60  97 CALM      29.86S                  
$$
 
WIZ029-030-035-036-043>047-180500-
CENTRAL WISCONSIN
  
CITY           SKY/WX    TMP DP  RH WIND       PRES   REMARKS
WAUSAU         FAIR      64  61  90 E6        29.84S                  
MOSINEE        FAIR      63  63 100 SE3       29.87S                  
MARSHFIELD     FAIR      66  61  84 SE3       29.84S                  
STEVENS POINT  FAIR      62  61  98 CALM      29.86S                  
WAUPACA        FAIR      65  64  96 CALM      29.85S                  
WAUTOMA        FAIR      63  62  97 CALM      29.85S                  
WISC RAPIDS    FAIR      67  62  84 SE6       29.84F                  
CAMP DOUGLAS   FAIR      65  65 100 CALM      29.83S                  
$$
 
WIZ011>013-019>022-031-037>040-048>050-180500-
NORTHEAST WISCONSIN
  
CITY           SKY/WX    TMP DP  RH WIND       PRES   REMARKS
ANTIGO         FAIR      61  60  96 S3        29.88S                  
SHAWANO        FAIR      68  64  85 CALM      29.85F                  
OCONTO         FAIR      63  62  97 CALM      29.86S                  
STURGEON BAY   FAIR      65  63  93 S6        29.88S                  
GREEN BAY      FAIR      65  63  93 CALM      29.86S                  
MANITOWOC      FAIR      65  64  97 CALM      29.88R                  
APPLETON       PTCLDY    68  59  73 SE5       29.85R                  
CLINTONVILLE   FAIR      63  59  88 CALM      29.85F                  
OSHKOSH        FAIR      67  64  90 S5        29.85S                  
$$
 
WIZ032>034-041-042-053>061-180500-
SOUTHWEST WISCONSIN
  
CITY           SKY/WX    TMP DP  RH WIND       PRES   REMARKS
LA CROSSE      MOCLDY    72  64  76 E8        29.78F                  
SPARTA         FAIR      60  59  96 CALM      29.82F                  
VIROQUA        MOCLDY    68  68 100 SE7       29.84R                  
BOSCOBEL       FAIR      68  65  90 CALM      29.82S                  
PRAIRIE DU CHI FAIR      70  67  89 E3        29.82R                  
PLATTEVILLE    FAIR      69  69 100 SE6       29.85S                  
$$

WIZ056-057-062-063-064-067-068-180500-
SOUTH CENTRAL WISCONSIN
  
CITY           SKY/WX    TMP DP  RH WIND       PRES   REMARKS
REEDSBURG      FAIR      65  65 100 CALM      29.84S                  
BARABOO/DELLS  FAIR      65  63  92 CALM      29.85R                  
LONE ROCK      FAIR      67  65  93 CALM      29.83R                  
MINERAL POINT    N/A     70  70 100 E5        29.86R                  
MADISON        FAIR      72  67  84 SE6       29.84S                  
MIDDLETON      FAIR      69  16  13 CALM      29.86R                  
WATERTOWN      FAIR      68  68 100 CALM      29.86R                  
MONROE         FAIR      70  68  94 S6        29.86R                  
JANESVILLE     FAIR      70  70 100 S5        29.86R                  
$$
 
WIZ051-052-058>065-066-070>072-180500-
SOUTHEAST WISCONSIN
  
CITY           SKY/WX    TMP DP  RH WIND       PRES   REMARKS
MILWAUKEE      FAIR      71  66  84 S5        29.87R                  
WAUKESHA       FAIR      66  64  94 S3        29.89R                  
MILWAUKEE/TIMM FAIR      70  63  78 CALM      29.88S                  
RACINE         FAIR      71  69  93 S3        29.89R FOG              
KENOSHA        FAIR      71  70  96 SE3       29.88R                  
FOND DU LAC    FAIR      70  65  84 S5        29.86S                  
SHEBOYGAN      MOCLDY    66  65  96 CALM      29.87S FOG              
WEST BEND        N/A     64  64 100 CALM      29.88S FOG              
JUNEAU         FAIR      67  65  93 CALM      29.87S                  
$$

LSZ147-162-180500-
LAKE SUPERIOR
  
STATION/POSITION TIME  TEMP    WIND        PRES    WAVE
                       AIR SEA DIR/SP/G            HT/PER
                 (UTC) (F)     (DEG/KT/KT) (MB)    (FT/S)
W MID LAKE BUOY  0350   69 64  160/ 10/ 10 1007.5F   0
DEVILS ISLAND    0400   73     170/  9/ 12 1007.5F
SAXON HARBOR     0330   68     210/  3/  6 1008.1F
$$
 
LMZ867-665-643>646-180500-
LAKE MICHIGAN
  
STATION/POSITION TIME  TEMP    WIND        PRES    WAVE
                       AIR SEA DIR/SP/G            HT/PER
                 (UTC) (F)     (DEG/KT/KT) (MB)    (FT/S)
S GREEN BAY BUOY 0400   75 71  180/  6/  8 1011.4
N MID LAKE BUOY  0400   70 70  220/  8/  8 1012.0
NORTHPORT PIER   0340   69     170/  1/  4 1011.2R
KEWAUNEE LAKESHO 0336   68     200/  1/  3 1010.9R
SHEBOYGAN LAKESH 0400   69     160/  6/  7 1011.5R
PORT WASHINGTON  0340   71     160/  3/  4 1012.2S
S MID LAKE BUOY  0400   73 74  130/  6/  6 1012.1
KENOSHA   LAKESH 0400   72     180/  3/  6 1011.5
$$

TC  - TEMPERATURE IN CELSIUS
VSB - VISIBILITY IN STATUTE MILES
WCI - WIND CHILL INDEX
HX  - HEAT INDEX